Location: Newark
(3.0500°N, 36.0167°E)
Time: 04:31:03
(UTC+00:00)

A-11 Canister half - Pass Details

Date: 30 August 2019
Orbit: 1527 x 1682 km, 47.3° (Epoch: 17 September)

Event Time Altitude Azimuth Distance (km) Brightness Sun altitude
Rises 18:29:28 0° 273° (W) 4,873 12.4 -41.9°
Reaches altitude 10° 18:36:53 10° 237° (WSW) 3,843 11.4 -43.7°
Maximum altitude 18:38:31 11° 227° (SW) 3,795 11.3 -44.0°
Drops below altitude 10° 18:40:08 10° 217° (SW) 3,822 11.2 -44.4°
Enters shadow 18:43:38 - 197° (SSW) 4,125 11.2 -45.3°
Sets 18:47:30 0° 180° (S) 4,760 - -46.2°
